Regional Weather Roundup
Issued by NWS Spokane, WA

Home | Current Version | Previous Version | Text Only | Print | Product List | Glossary On
Versions: 1 2 3 4 5 6 7 8 9 10 11 12 13 14 15 16 17 18 19 20 21 22 23 24 25 26 27 28 29 30 31 32 33 34 35 36 37 38 39 40 41 42 43 44 45 46 47 48 49 50
359
NZUS01 KOTX 260910
RWROTX

Eastern Washington/Northern Idaho Roundup
National Weather Service, Spokane WA
200 AM PDT WED JUL 26 2017

Note: "fair" indicated few or no clouds below 12,000 feet with no
significant weather and/or obstructions to visibility.

...Northeast Washington and Northern Idaho Panhandle...

CITY           SKY/WX    TMP DP  RH WIND       PRES   REMARKS
Spokane Intl   PTCLDY    66  38  35 CALM      30.00S
Spokane Downto PTCLDY    61  43  51 NE3       30.00R
Coeur d Alene  PTCLDY    58  43  57 E6        30.02R
Deer Park      CLEAR     53  38  56 CALM      30.00S
Sandpoint      CLEAR     50  39  66 CALM      30.02R
Bonners Ferry  FAIR      55  41  58 CALM      30.04R

...Southeast Washington and southern Idaho Panhandle...

CITY           SKY/WX    TMP DP  RH WIND       PRES   REMARKS
Walla Walla    PTCLDY    74  43  32 E8        29.93S
Pullman/Moscow MOCLDY    57  43  59 CALM      30.03S
Lewiston       PTCLDY    70  37  29 SE5       29.95R
Lowell           N/A     60  49  66 NW3       30.03R
Grangeville    FAIR      59  37  44 CALM      30.04S

...Columbia Basin...

CITY           SKY/WX    TMP DP  RH WIND       PRES   REMARKS
Ephrata        PTCLDY    69  41  36 N7        29.93S
Moses Lake     PTCLDY    65  50  58 N3        29.94S
Pasco          PTCLDY    63  56  78 NE3       29.91R
Richland       SUNNY     70  56  62 SE3       29.90S
Hermiston      MOCLDY    63  48  58 CALM      29.92R
Pendleton      MOCLDY    68  40  35 SE12      29.95S

...East Slopes Cascades...

CITY           SKY/WX    TMP DP  RH WIND       PRES   REMARKS
The Dalles     PTCLDY    77  57  50 NW14G21   29.92S
Yakima         PTCLDY    72  50  45 SW6       29.96R
Ellensburg     PTCLDY    72  48  42 NW13      29.99S
Stampede Pass  CLEAR     58  49  72 SW5       30.14S
Wenatchee      PTCLDY    74  48  39 NW5       29.95S
Omak           CLEAR     64  40  41 NW8       29.97R
Sunnyside        N/A     58  53  83 CALM      29.93R

...Southern British Columbia...

CITY           SKY/WX    TMP DP  RH WIND       PRES   REMARKS
Penticton      CLEAR     61  41  48 N3        29.98S
Cranbrook      CLEAR     63  32  31 W7        30.07R
Osoyoos          N/A     59  50  72 SE1         N/A
Creston          N/A     63  36  36 E2          N/A

...Western Montana...

CITY           SKY/WX    TMP DP  RH WIND       PRES   REMARKS
Kalispell      SUNNY     55  43  63 NW6       30.03S
Libby            N/A     54  37  54 S3        30.04R
Missoula       CLEAR     58  36  43 CALM      30.07R

...Neighboring Cities...

CITY           SKY/WX    TMP DP  RH WIND       PRES   REMARKS
Seattle        CLEAR     66  53  63 NW5       30.03S
Portland       MOCLDY    66  54  65 VRB3      30.02S
Boise          MOCLDY    79  51  37 SE9       30.02R
Great Falls    CLOUDY    57  38  48 CALM      30.10S
Calgary        PTCLDY    57  45  62 S6        30.12F



USA.gov is the U.S. government's official web portal to all federal, state and local government web resources and services.